[[{"header":{"parameterUnit":"m.s-1","parameterCategory":2,"la1":30.2991,"la2":30.254,"lo1":-89.0895,"lo2":-89.0444,"dy":0.0017,"dx":0.0017,"nx":28,"ny":28,"refTime":"2025-01-23T09:00:00:Z","depth":"0","parameterNumber":2,"parameterNumberName":"U-component_of_CURRENTS"},"data":[0,0,0,0,0,0,0,0,0,0,0,0,0,0,0,0,0,0,0,0,0,0,0,0,0,0,0,0,0,0,0,0,0,0,0,0,0,0,0,0,0,0,0,0,0,0,0,0,0,0,0,0,0,0,0,0,0,0,0.2159,0.216,0,0.2213,0.2214,0.2214,0.2232,0.2232,0.2232,0.2232,0.2236,0.2236,0.2236,0,0,0,0,0,0,0,0,0,0,0,0,0,0.2077,0.2079,0.2159,0.216,0.2161,0.2213,0.2214,0.2214,0.2232,0.2232,0.2232,0.2232,0.2236,0.2236,0.2236,0,0,0,0,0,0,0,0,0,0,0,0,0,0.2119,0.2079,0.2159,0.2177,0.2179,0.2213,0.2214,0.2215,0.2232,0.2232,0.2232,0.2232,0.2236,0.2236,0.2236,0.224,0,0,0.2237,0.2237,0,0,0,0,0,0,0,0,0.2116,0.2121,0.2174,0.2176,0.2179,0.2218,0.2187,0.2221,0.2232,0.221,0.2232,0.2232,0.2226,0.2227,0.2236,0.224,0.224,0.2237,0.2237,0.2237,0.2237,0,0,0,0,0,0,0,0.2113,0.2119,0.2178,0.2175,0.2178,0.2185,0.2191,0.2194,0.2215,0.2212,0.2214,0.2223,0.2227,0.2236,0.2236,0.224,0.2237,0.2237,0.2237,0.2237,0.2274,0.2275,0,0,0,0,0,0,0.2111,0.2116,0.2177,0.218,0.2149,0.2187,0.2193,0.2204,0.2217,0.222,0.2223,0.2224,0.2235,0.2236,0.2236,0.2273,0.2237,0.2237,0.2238,0.2273,0.2274,0.2275,0,0,0,0,0,0,0.2109,0.2115,0.2175,0.2151,0.2159,0.2189,0.22,0.2205,0.2213,0.2226,0.2228,0.2227,0.2235,0.2236,0.2253,0.2271,0.2238,0.2238,0.2272,0.2273,0.2275,0.2325,0,0,0,0,0,0,0.2106,0.2114,0.2119,0.2151,0.2161,0.2196,0.2201,0.2206,0.222,0.2221,0.223,0.2231,0.2235,0.2253,0.2253,0.2271,0.2238,0.2271,0.2273,0.2274,0.2322,0.2328,0.2332,0,0,0,0,0,0.2103,0.2108,0.2119,0.2126,0.2167,0.2197,0.2202,0.2221,0.222,0.2227,0.2242,0.223,0.2263,0.2254,0.2254,0.2273,0.227,0.2272,0.2274,0.232,0.2327,0.2332,0,0,0,0,0,0,0.2069,0.2111,0.2124,0.214,0.2168,0.2201,0.2208,0.222,0.2237,0.2237,0.2243,0.2245,0.2267,0.2261,0.2251,0.2287,0.2264,0.2266,0.2298,0.2304,0.2309,0.2316,0.2238,0,0,0,0,0,0.2066,0.2083,0.2123,0.2135,0.2149,0.2178,0.2191,0.2207,0.2228,0.2235,0.2245,0.2256,0.2275,0.2282,0.2292,0.231,0.2328,0.2321,0.2326,0.233,0.2336,0.2372,0.2381,0.2281,0.2281,0.2281,0,0,0.2056,0.2081,0.2091,0.2129,0.2151,0.2184,0.2185,0.2207,0.2238,0.2232,0.2266,0.2273,0.2284,0.2313,0.2321,0.2309,0.2375,0.2333,0.2336,0.234,0.2375,0.2385,0.2394,0.2282,0.2282,0.2282,0,0,0.2052,0.2068,0.2088,0.2116,0.2155,0.2179,0.2186,0.2223,0.224,0.2274,0.2283,0.2304,0.2323,0.2346,0.2357,0.2392,0.24,0.2389,0.2423,0.2458,0.2467,0.2475,0.2541,0.2554,0.2392,0.2393,0.2393,0,0.2041,0.2074,0.2096,0.2128,0.2156,0.2179,0.2213,0.2238,0.2277,0.2297,0.2289,0.2343,0.2344,0.2396,0.2411,0.2405,0.2435,0.24,0.2466,0.2474,0.2481,0.2546,0.256,0.2395,0.2395,0.2395,0.2394,0,0.2063,0.2092,0.2104,0.2159,0.2188,0.2217,0.2262,0.229,0.2309,0.2337,0.2384,0.2398,0.2435,0.2435,0.2435,0.2489,0.2499,0.2469,0.2452,0.2494,0.2561,0.2574,0.2399,0.2398,0.2397,0.2397,0,0,0.204,0.2108,0.2114,0.2142,0.2209,0.2231,0.2289,0.2346,0.2377,0.2414,0.246,0.2497,0.2505,0.2518,0.2522,0.2544,0.2626,0.253,0.253,0.2601,0.2736,0.2843,0.2868,0.2607,0.2609,0.2611,0.2773,0,0.2056,0.2111,0.2148,0.2202,0.2237,0.2284,0.2331,0.2383,0.2423,0.2469,0.2502,0.2537,0.2539,0.2551,0.2587,0.261,0.2659,0.2587,0.268,0.2684,0.2777,0.2886,0.2883,0.3036,0.2787,0.2789,0.279,0,0.2076,0.2111,0.2164,0.2227,0.2245,0.2276,0.2351,0.2397,0.2473,0.2506,0.2567,0.2589,0.2662,0.2625,0.2741,0.2697,0.2729,0.2741,0.2747,0.2837,0.2816,0.2947,0.307,0.2856,0.2811,0.281,0.2808,0,0.2059,0.2124,0.2161,0.2187,0.2262,0.2286,0.2323,0.2401,0.2464,0.2525,0.2591,0.2655,0.2719,0.2758,0.2847,0.2784,0.2969,0.288,0.3017,0.3025,0.3038,0.3045,0.2968,0.2955,0.2954,0.2954,0.2953,0,0.2082,0.2124,0.2145,0.2171,0.2221,0.2259,0.2322,0.2378,0.2464,0.2561,0.2608,0.2715,0.2752,0.2876,0.2895,0.3062,0.3034,0.3066,0.3087,0.306,0.3067,0.2891,0.2805,0.296,0.2959,0.2957,0.2956,0,0.2134,0.213,0.2181,0.2214,0.2224,0.2264,0.2352,0.2407,0.2482,0.2618,0.265,0.2797,0.2972,0.306,0.315,0.3173,0.3186,0.3315,0.3313,0.3331,0.3219,0.314,0.3131,0.303,0.3467,0.3471,0.3474,0,0.2217,0.2222,0.2223,0.2242,0.2269,0.2315,0.2363,0.2421,0.2499,0.2691,0.2774,0.2972,0.3147,0.3382,0.3452,0.3574,0.3371,0.3601,0.3467,0.3261,0.3183,0.3041,0.2941,0.3507,0.351,0.3513,0.3515,0,0.2365,0.2314,0.2331,0.2334,0.2357,0.24,0.2461,0.2519,0.2615,0.274,0.292,0.3057,0.3361,0.3514,0.3712,0.375,0.343,0.366,0.3424,0.3221,0.3082,0.2978,0.3359,0.3538,0.3536,0.3534,0.3533,0.3532,0.247,0.248,0.242,0.2439,0.2451,0.2451,0.2469,0.2556,0.2651,0.2815,0.298,0.3201,0.3464,0.3758,0.3769,0.3711,0.3631,0.3563,0.3495,0.3374,0.3239,0.3713,0.3923,0.3923,0.3923,0.3923,0.3923,0,0.2549,0.251,0.254,0.2481,0.2476,0.2468,0.2516,0.2523,0.2605,0.2819,0.2984,0.3304,0.3499,0.3626,0.3681,0.3523,0.3335,0.3369,0.308,0.2992,0.3399,0.3356,0.3478,0.3478,0.3479,0.3479,0.3479,0.3479,0.2565,0.2548,0.2523,0.2482,0.2459,0.2396,0.2395,0.2441,0.2553,0.2732,0.2916,0.31,0.3313,0.3422,0.3274,0.3206,0.2836,0.2856,0.2681,0.2858,0.2864,0.287,0.28,0.2804,0.2803,0.2192,0.2187,0.2183]},{"header":{"parameterUnit":"m.s-1","parameterCategory":2,"la1":30.2991,"la2":30.254,"lo1":-89.0895,"lo2":-89.0444,"dy":0.0017,"dx":0.0017,"nx":28,"ny":28,"refTime":"2025-01-23T09:00:00:Z","depth":"0","parameterNumber":3,"parameterNumberName":"V-component_of_CURRENTS"},"data":[0,0,0,0,0,0,0,0,0,0,0,0,0,0,0,0,0,0,0,0,0,0,0,0,0,0,0,0,0,0,0,0,0,0,0,0,0,0,0,0,0,0,0,0,0,0,0,0,0,0,0,0,0,0,0,0,0,0,-0.0419,-0.0419,0,-0.046,-0.0461,-0.0461,-0.0505,-0.0506,-0.0506,-0.0507,-0.0586,-0.0588,-0.0589,0,0,0,0,0,0,0,0,0,0,0,0,0,-0.0419,-0.0419,-0.0419,-0.0419,-0.042,-0.046,-0.0461,-0.0461,-0.0505,-0.0506,-0.0506,-0.0507,-0.0585,-0.0587,-0.0589,0,0,0,0,0,0,0,0,0,0,0,0,0,-0.0437,-0.0419,-0.0419,-0.0445,-0.0447,-0.046,-0.0461,-0.0462,-0.0505,-0.0506,-0.0507,-0.0507,-0.0585,-0.0587,-0.059,-0.0593,0,0,-0.0598,-0.0599,0,0,0,0,0,0,0,0,-0.0436,-0.0438,-0.0441,-0.0443,-0.0446,-0.0476,-0.049,-0.0507,-0.0505,-0.0486,-0.0507,-0.0507,-0.0551,-0.0556,-0.0565,-0.0596,-0.06,-0.0598,-0.0599,-0.06,-0.0601,0,0,0,0,0,0,0,-0.0435,-0.0436,-0.0437,-0.0441,-0.0444,-0.0468,-0.0471,-0.0493,-0.0517,-0.0487,-0.049,-0.0491,-0.0553,-0.0563,-0.0567,-0.0601,-0.0598,-0.06,-0.0602,-0.0603,-0.0677,-0.0678,0,0,0,0,0,0,-0.0422,-0.0435,-0.0436,-0.0438,-0.044,-0.0467,-0.0471,-0.0468,-0.0516,-0.0523,-0.049,-0.0493,-0.0558,-0.0564,-0.057,-0.062,-0.06,-0.0603,-0.0604,-0.0677,-0.0677,-0.0678,0,0,0,0,0,0,-0.0422,-0.0422,-0.0434,-0.0436,-0.0439,-0.0466,-0.0462,-0.0468,-0.0476,-0.0517,-0.0525,-0.0492,-0.0559,-0.0567,-0.0598,-0.0622,-0.0604,-0.0606,-0.0676,-0.0677,-0.0678,-0.0692,0,0,0,0,0,0,-0.0422,-0.0422,-0.0416,-0.0435,-0.0438,-0.0436,-0.0462,-0.0468,-0.0475,-0.0479,-0.0521,-0.053,-0.056,-0.0594,-0.0601,-0.0625,-0.0608,-0.0676,-0.0677,-0.0677,-0.0691,-0.0693,-0.0695,0,0,0,0,0,-0.0422,-0.0403,-0.0415,-0.0415,-0.0429,-0.0435,-0.0439,-0.0463,-0.0474,-0.0474,-0.0512,-0.0528,-0.0605,-0.0597,-0.0604,-0.063,-0.0675,-0.0676,-0.0677,-0.069,-0.0693,-0.0695,0,0,0,0,0,0,-0.0394,-0.0407,-0.042,-0.0405,-0.0419,-0.0442,-0.0439,-0.0456,-0.0484,-0.0489,-0.0532,-0.0542,-0.0585,-0.0595,-0.0585,-0.0652,-0.0643,-0.0646,-0.0651,-0.0653,-0.0655,-0.0632,-0.061,0,0,0,0,0,-0.0385,-0.038,-0.0398,-0.0386,-0.039,-0.0415,-0.042,-0.0435,-0.0461,-0.0473,-0.0506,-0.0545,-0.0594,-0.0612,-0.0647,-0.0674,-0.0672,-0.0695,-0.0697,-0.0699,-0.0684,-0.0724,-0.0729,-0.0681,-0.0681,-0.0681,0,0,-0.0372,-0.0377,-0.0375,-0.0381,-0.0393,-0.0398,-0.042,-0.0421,-0.0436,-0.0477,-0.0506,-0.0552,-0.0602,-0.0648,-0.0666,-0.0659,-0.0706,-0.07,-0.0701,-0.0685,-0.0726,-0.073,-0.0734,-0.0682,-0.0682,-0.0682,0,0,-0.0342,-0.0346,-0.0336,-0.0346,-0.0358,-0.0376,-0.0374,-0.0397,-0.0419,-0.0447,-0.0498,-0.0551,-0.0599,-0.0655,-0.0688,-0.0713,-0.0718,-0.0727,-0.0717,-0.0758,-0.0762,-0.0765,-0.0744,-0.0746,-0.0724,-0.0724,-0.0724,0,-0.0326,-0.0316,-0.0333,-0.0329,-0.0333,-0.0364,-0.0358,-0.0386,-0.042,-0.044,-0.0453,-0.0561,-0.0606,-0.0685,-0.0703,-0.072,-0.0719,-0.0709,-0.076,-0.0764,-0.0768,-0.0745,-0.0747,-0.0725,-0.0725,-0.0725,-0.0725,0,-0.0296,-0.0291,-0.0282,-0.0294,-0.0302,-0.0297,-0.0335,-0.0355,-0.0384,-0.0416,-0.0486,-0.056,-0.0616,-0.0658,-0.0691,-0.0752,-0.0733,-0.0763,-0.0754,-0.0774,-0.0748,-0.0749,-0.0726,-0.0726,-0.0726,-0.0726,0,0,-0.0251,-0.0259,-0.0258,-0.0253,-0.028,-0.0277,-0.0311,-0.0344,-0.0348,-0.0423,-0.0435,-0.0567,-0.0598,-0.0636,-0.07,-0.0749,-0.0778,-0.0761,-0.0763,-0.0737,-0.0819,-0.075,-0.0745,-0.0824,-0.0825,-0.0826,-0.0781,0,-0.0222,-0.0198,-0.022,-0.0206,-0.0194,-0.024,-0.0258,-0.0298,-0.0332,-0.0349,-0.0459,-0.0495,-0.0594,-0.0613,-0.0687,-0.0746,-0.0786,-0.0783,-0.0805,-0.0804,-0.0741,-0.0747,-0.0694,-0.0646,-0.0783,-0.0783,-0.0783,0,-0.0186,-0.0172,-0.0147,-0.0149,-0.0148,-0.0151,-0.017,-0.019,-0.0245,-0.0267,-0.0345,-0.0403,-0.0498,-0.056,-0.0696,-0.0687,-0.0748,-0.0803,-0.0803,-0.0732,-0.0739,-0.0655,-0.0644,-0.0844,-0.0786,-0.0785,-0.0785,0,-0.0126,-0.0122,-0.0094,-0.0095,-0.0106,-0.0109,-0.012,-0.0163,-0.0133,-0.02,-0.0157,-0.032,-0.0327,-0.048,-0.0596,-0.0644,-0.07,-0.0777,-0.0775,-0.0768,-0.0721,-0.0709,-0.0904,-0.0864,-0.0864,-0.0864,-0.0864,0,-0.0077,-0.0052,-0.006,-0.0038,0.0015,-0.0039,0.0014,-0.0019,-0.0013,0.0068,-0.0094,-0.0043,-0.0306,-0.0367,-0.0531,-0.0623,-0.0651,-0.0755,-0.076,-0.072,-0.0709,-0.0877,-0.0988,-0.0862,-0.0862,-0.0863,-0.0863,0,0.0003,-0.0014,0.004,0.0042,0.0056,0.0099,0.0157,0.0212,0.0178,0.0293,0.0293,0.0197,0.0109,-0.0117,-0.0312,-0.0476,-0.0692,-0.0642,-0.0542,-0.0537,-0.075,-0.086,-0.0991,-0.1048,-0.0647,-0.0646,-0.0644,0,0.0051,0.0082,0.0139,0.0202,0.0218,0.0275,0.0346,0.0327,0.0413,0.0468,0.0563,0.0496,0.0496,0.0236,-0.0074,-0.0328,-0.0558,-0.0463,-0.0574,-0.0737,-0.0867,-0.0959,-0.1006,-0.0506,-0.0504,-0.0502,-0.05,0,0.0157,0.0176,0.0228,0.0353,0.0442,0.0554,0.0645,0.0749,0.0767,0.0852,0.0958,0.0951,0.0738,0.0506,0.0152,-0.007,-0.0576,-0.0425,-0.0651,-0.0808,-0.0865,-0.0927,-0.0524,-0.0481,-0.0483,-0.0485,-0.0486,-0.0486,0.0246,0.0305,0.0369,0.0485,0.0624,0.0789,0.0874,0.0999,0.1137,0.1264,0.1273,0.1316,0.0977,0.0502,0.0191,-0.0366,-0.0404,-0.0571,-0.0694,-0.0773,-0.0838,-0.0352,-0.0289,-0.029,-0.0291,-0.0291,-0.0292,0,0.029,0.0346,0.0492,0.0617,0.0787,0.0834,0.1042,0.1127,0.1284,0.1486,0.1558,0.1484,0.104,0.0533,-0.0177,-0.0577,-0.0774,-0.0831,-0.1005,-0.1044,-0.0658,-0.0666,-0.0613,-0.0613,-0.0613,-0.0613,-0.0612,-0.0612,0.0301,0.04,0.0457,0.0694,0.0819,0.1007,0.1118,0.1277,0.1437,0.1656,0.175,0.1794,0.1381,0.0124,-0.0774,-0.0986,-0.1301,-0.1319,-0.149,-0.1304,-0.1292,-0.128,-0.1319,-0.1404,-0.1405,-0.1819,-0.1823,-0.1827]}],[{"header":{"parameterUnit":"m.s-1","parameterCategory":2,"la1":30.2991,"la2":30.254,"lo1":-89.0895,"lo2":-89.0444,"dy":0.0017,"dx":0.0017,"nx":28,"ny":28,"refTime":"2025-01-23T09:00:00:Z","depth":"2","parameterNumber":2,"parameterNumberName":"U-component_of_CURRENTS"},"data":[0,0,0,0,0,0,0,0,0,0,0,0,0,0,0,0,0,0,0,0,0,0,0,0,0,0,0,0,0,0,0,0,0,0,0,0,0,0,0,0,0,0,0,0,0,0,0,0,0,0,0,0,0,0,0,0,0,0,0.1879,0.188,0,0.1929,0.1929,0.1929,0.1963,0.1963,0.1964,0.1964,0.1985,0.1985,0.1985,0,0,0,0,0,0,0,0,0,0,0,0,0,0.1796,0.1797,0.1879,0.188,0.1881,0.1929,0.1929,0.1929,0.1963,0.1963,0.1964,0.1965,0.1985,0.1985,0.1985,0,0,0,0,0,0,0,0,0,0,0,0,0,0.1834,0.1797,0.1879,0.1906,0.1909,0.1928,0.1929,0.1929,0.1962,0.1963,0.1964,0.1965,0.1985,0.1985,0.1985,0.1969,0,0,0.1986,0.1986,0,0,0,0,0,0,0,0,0.1832,0.1837,0.1901,0.1904,0.1908,0.1943,0.1908,0.1942,0.1962,0.1938,0.1964,0.1965,0.197,0.1972,0.1975,0.197,0.1971,0.1986,0.1986,0.1986,0.1986,0,0,0,0,0,0,0,0.1829,0.1835,0.1895,0.1902,0.1906,0.191,0.1916,0.1914,0.1946,0.1941,0.1944,0.1955,0.1972,0.1974,0.1975,0.1971,0.1986,0.1986,0.1986,0.1986,0.2022,0.2023,0,0,0,0,0,0,0.183,0.1832,0.1894,0.1897,0.1875,0.1911,0.1918,0.1928,0.1947,0.1952,0.1954,0.1956,0.1974,0.1975,0.1976,0.2039,0.1986,0.1986,0.1986,0.2021,0.2022,0.2023,0,0,0,0,0,0,0.1828,0.1835,0.1892,0.1868,0.1876,0.1912,0.1923,0.1929,0.1946,0.1958,0.1962,0.1968,0.1975,0.1976,0.2002,0.2037,0.1986,0.1986,0.202,0.2021,0.2023,0.2113,0,0,0,0,0,0,0.1826,0.1834,0.184,0.1869,0.1878,0.1914,0.1923,0.1929,0.1952,0.1956,0.197,0.1973,0.1975,0.2002,0.2002,0.2036,0.1986,0.2019,0.2021,0.2022,0.2109,0.2118,0.2125,0,0,0,0,0,0.1822,0.1832,0.184,0.1848,0.1886,0.1915,0.192,0.1945,0.1952,0.1962,0.1983,0.1973,0.2012,0.2003,0.2002,0.2038,0.2018,0.202,0.2022,0.2106,0.2116,0.2125,0,0,0,0,0,0,0.1802,0.1837,0.1847,0.1868,0.1894,0.1922,0.1935,0.1949,0.1971,0.1977,0.1985,0.1989,0.2022,0.2011,0.2,0.2051,0.2013,0.2015,0.2076,0.2086,0.2094,0.2114,0.1986,0,0,0,0,0,0.1799,0.1815,0.1849,0.1865,0.1879,0.1906,0.1921,0.1939,0.1964,0.1975,0.199,0.2005,0.2026,0.2042,0.2047,0.2075,0.2084,0.2095,0.2103,0.211,0.2125,0.2165,0.2179,0.203,0.203,0.203,0,0,0.1794,0.1818,0.1826,0.1862,0.1882,0.1915,0.1917,0.1944,0.1981,0.1971,0.202,0.2027,0.2037,0.2077,0.209,0.2077,0.216,0.2113,0.2119,0.2131,0.2169,0.2184,0.2197,0.2031,0.2031,0.2031,0,0,0.18,0.1816,0.1834,0.1861,0.1899,0.192,0.1931,0.1967,0.1994,0.2034,0.2045,0.2083,0.2098,0.2134,0.2149,0.2199,0.2194,0.219,0.2259,0.2298,0.2311,0.2323,0.237,0.2385,0.2202,0.2202,0.2203,0,0.1793,0.1828,0.1843,0.1875,0.1907,0.1927,0.1963,0.1993,0.2036,0.2068,0.2059,0.2126,0.2135,0.221,0.2237,0.2222,0.2239,0.2227,0.2311,0.2323,0.2333,0.2378,0.2394,0.2207,0.2206,0.2206,0.2206,0,0.1817,0.1852,0.1867,0.1918,0.1948,0.1982,0.2029,0.2062,0.209,0.2127,0.2195,0.2217,0.226,0.2273,0.2277,0.2361,0.2348,0.2312,0.2293,0.2354,0.2397,0.2412,0.2214,0.2212,0.2211,0.2209,0,0,0.1792,0.1868,0.1877,0.1911,0.1979,0.2002,0.207,0.2138,0.2189,0.2232,0.2306,0.2364,0.2373,0.2391,0.2401,0.2452,0.2551,0.2424,0.2424,0.2483,0.2651,0.2624,0.2637,0.2529,0.2532,0.2534,0.2658,0,0.1812,0.1875,0.1914,0.1982,0.2021,0.2071,0.2132,0.2195,0.225,0.232,0.2372,0.2431,0.2419,0.2446,0.2498,0.2533,0.2591,0.2522,0.2572,0.2574,0.2553,0.2653,0.2386,0.2472,0.2672,0.2674,0.2676,0,0.1831,0.1872,0.194,0.2025,0.2046,0.2087,0.2185,0.2243,0.2348,0.2394,0.2468,0.2499,0.2598,0.2558,0.2675,0.2629,0.2653,0.2678,0.2682,0.2636,0.2575,0.2439,0.2491,0.27,0.2698,0.2696,0.2695,0,0.1816,0.1894,0.1948,0.1979,0.2073,0.2113,0.2161,0.2263,0.2344,0.244,0.2517,0.2595,0.2673,0.2703,0.2791,0.2722,0.2925,0.2819,0.2824,0.2822,0.2595,0.2569,0.29,0.29,0.29,0.29,0.2899,0,0.1846,0.1908,0.1937,0.1977,0.2054,0.2097,0.2198,0.2266,0.2377,0.2503,0.2548,0.2678,0.2717,0.2842,0.2846,0.2927,0.2972,0.2871,0.2864,0.262,0.2596,0.2777,0.2761,0.2904,0.2903,0.2902,0.2902,0,0.192,0.1919,0.1996,0.2048,0.2064,0.2129,0.2245,0.2324,0.241,0.2578,0.262,0.278,0.2927,0.2996,0.3092,0.3028,0.3077,0.3094,0.2825,0.2783,0.2914,0.2901,0.3043,0.3044,0.3044,0.3044,0.3045,0,0.2022,0.2035,0.2061,0.2088,0.2134,0.2208,0.2273,0.2351,0.2442,0.2666,0.2759,0.2949,0.3031,0.3174,0.314,0.3137,0.3206,0.2893,0.2692,0.2957,0.2935,0.2921,0.2908,0.2429,0.2424,0.242,0.2417,0,0.217,0.2129,0.2159,0.2173,0.2218,0.2308,0.2388,0.2459,0.2577,0.269,0.2862,0.2917,0.3059,0.293,0.2957,0.2917,0.2848,0.281,0.3184,0.2441,0.2389,0.2363,0.2368,0.2381,0.2385,0.2387,0.2389,0.2391,0.2236,0.2263,0.217,0.2234,0.2291,0.2331,0.2356,0.2439,0.2517,0.2566,0.2742,0.2692,0.2724,0.257,0.2563,0.2569,0.2701,0.2516,0.2523,0.2535,0.2449,0.2401,0.2381,0.2384,0.2387,0.239,0.2392,0,0.2159,0.2141,0.222,0.2191,0.2244,0.2276,0.2363,0.2329,0.2346,0.2394,0.2381,0.2133,0.2042,0.2154,0.2065,0.2055,0.1979,0.2007,0.186,0.1897,0.193,0.1807,0.1571,0.1569,0.1567,0.1565,0,0,0.2022,0.1991,0.2039,0.2053,0.2107,0.2067,0.2081,0.2062,0.205,0.1893,0.1797,0.18,0.1979,0.1696,0.1702,0.163,0.1744,0.1577,0.2227,0.2085,0.2114,0.2215,0.2068,0,0,0,0,0]},{"header":{"parameterUnit":"m.s-1","parameterCategory":2,"la1":30.2991,"la2":30.254,"lo1":-89.0895,"lo2":-89.0444,"dy":0.0017,"dx":0.0017,"nx":28,"ny":28,"refTime":"2025-01-23T09:00:00:Z","depth":"2","parameterNumber":3,"parameterNumberName":"V-component_of_CURRENTS"},"data":[0,0,0,0,0,0,0,0,0,0,0,0,0,0,0,0,0,0,0,0,0,0,0,0,0,0,0,0,0,0,0,0,0,0,0,0,0,0,0,0,0,0,0,0,0,0,0,0,0,0,0,0,0,0,0,0,0,0,0.0023,0.0022,0,-0.0027,-0.0027,-0.0027,-0.007,-0.0071,-0.0072,-0.0072,-0.0173,-0.0175,-0.0177,0,0,0,0,0,0,0,0,0,0,0,0,0,0.0046,0.0046,0.0023,0.0022,0.0021,-0.0026,-0.0027,-0.0028,-0.007,-0.0071,-0.0072,-0.0072,-0.0172,-0.0175,-0.0177,0,0,0,0,0,0,0,0,0,0,0,0,0,0.0021,0.0046,0.0023,-0.0006,-0.001,-0.0026,-0.0027,-0.0028,-0.007,-0.0071,-0.0072,-0.0073,-0.0171,-0.0174,-0.0178,-0.018,0,0,-0.0187,-0.0189,0,0,0,0,0,0,0,0,0.0023,0.0021,-0.0001,-0.0004,-0.0008,-0.0044,-0.0056,-0.0081,-0.007,-0.0046,-0.0072,-0.0073,-0.0135,-0.0141,-0.0146,-0.0184,-0.0189,-0.0188,-0.019,-0.0191,-0.0192,0,0,0,0,0,0,0,0.0025,0.0022,0.0004,-0.0002,-0.0006,-0.0029,-0.0033,-0.0061,-0.0085,-0.0048,-0.0052,-0.0059,-0.0137,-0.0143,-0.0149,-0.019,-0.0188,-0.019,-0.0192,-0.0194,-0.0271,-0.0271,0,0,0,0,0,0,0.0032,0.0025,0.0006,0.0003,0.0004,-0.0029,-0.0033,-0.0031,-0.0084,-0.0092,-0.0058,-0.0061,-0.0137,-0.0145,-0.0153,-0.0209,-0.0191,-0.0194,-0.0196,-0.027,-0.0271,-0.0271,0,0,0,0,0,0,0.0032,0.0031,0.0008,0.0011,0.0006,-0.0028,-0.0025,-0.0031,-0.0046,-0.0091,-0.01,-0.0068,-0.0138,-0.0148,-0.0184,-0.0212,-0.0195,-0.0198,-0.027,-0.027,-0.0271,-0.029,0,0,0,0,0,0,0.0034,0.0032,0.0034,0.0012,0.0006,0.0,-0.0025,-0.0032,-0.0049,-0.0053,-0.0102,-0.0112,-0.0139,-0.0179,-0.0187,-0.0216,-0.0201,-0.027,-0.027,-0.0271,-0.0289,-0.0291,-0.0292,0,0,0,0,0,0.0035,0.0042,0.0035,0.0032,0.0012,0.0001,-0.0004,-0.0031,-0.0049,-0.0049,-0.0087,-0.0111,-0.0186,-0.0181,-0.0191,-0.0221,-0.027,-0.027,-0.0271,-0.0288,-0.029,-0.0292,0,0,0,0,0,0,0.0047,0.0038,0.0029,0.0032,0.0018,-0.0007,-0.0013,-0.0031,-0.006,-0.0069,-0.0112,-0.0124,-0.0157,-0.0181,-0.0175,-0.0241,-0.0232,-0.0234,-0.0242,-0.0244,-0.0246,-0.0206,-0.0203,0,0,0,0,0,0.0054,0.006,0.0043,0.0044,0.004,0.0014,0.0004,-0.0013,-0.004,-0.0054,-0.0089,-0.0128,-0.0162,-0.0197,-0.0214,-0.0261,-0.0259,-0.0285,-0.0286,-0.0288,-0.026,-0.0299,-0.0302,-0.0272,-0.0272,-0.0272,0,0,0.0058,0.0052,0.0055,0.0047,0.0034,0.0037,0.0006,-0.0005,-0.0011,-0.0061,-0.0084,-0.0122,-0.0167,-0.021,-0.023,-0.0243,-0.0293,-0.0288,-0.0289,-0.026,-0.03,-0.0303,-0.0306,-0.0272,-0.0272,-0.0272,0,0,0.0075,0.0066,0.0081,0.0073,0.0059,0.0047,0.0045,0.0021,0.0001,-0.0026,-0.0063,-0.0119,-0.0166,-0.0217,-0.0247,-0.0267,-0.0281,-0.0279,-0.0284,-0.0325,-0.0327,-0.033,-0.0323,-0.0325,-0.0305,-0.0305,-0.0305,0,0.0081,0.0097,0.0081,0.009,0.0089,0.0056,0.007,0.0047,0.0011,-0.0001,-0.003,-0.0103,-0.0168,-0.0221,-0.025,-0.0273,-0.0274,-0.0282,-0.0327,-0.033,-0.0332,-0.0325,-0.0327,-0.0306,-0.0306,-0.0306,-0.0305,0,0.0112,0.0119,0.0125,0.0132,0.013,0.0133,0.0108,0.0101,0.0069,0.0038,-0.0004,-0.0088,-0.0138,-0.0186,-0.0239,-0.0293,-0.0278,-0.0308,-0.0324,-0.0336,-0.0328,-0.0329,-0.0307,-0.0307,-0.0307,-0.0306,0,0,0.0141,0.0149,0.0149,0.0167,0.0154,0.0163,0.0157,0.0149,0.0143,0.0086,0.0066,-0.0039,-0.009,-0.0126,-0.0206,-0.0271,-0.0328,-0.031,-0.0311,-0.0303,-0.0377,-0.0364,-0.0365,-0.0373,-0.0373,-0.0374,-0.0362,0,0.0172,0.0209,0.0198,0.0232,0.0255,0.0232,0.023,0.0212,0.0175,0.0143,0.0052,0.0001,-0.0069,-0.0121,-0.0193,-0.0293,-0.0332,-0.0325,-0.0364,-0.0363,-0.0353,-0.0367,-0.0372,-0.0362,-0.0363,-0.0364,-0.0364,0,0.0205,0.0233,0.0272,0.0299,0.0305,0.0313,0.0323,0.031,0.0255,0.022,0.0162,0.0091,-0.0017,-0.0081,-0.0209,-0.0201,-0.0276,-0.0344,-0.0346,-0.0321,-0.0354,-0.0352,-0.0365,-0.0366,-0.0366,-0.0366,-0.0366,0,0.0249,0.0284,0.0322,0.0328,0.0346,0.0362,0.0366,0.0336,0.0344,0.0261,0.0271,0.0138,0.0091,-0.0035,-0.0182,-0.0207,-0.0298,-0.0354,-0.0383,-0.0381,-0.0382,-0.038,-0.0408,-0.0408,-0.0408,-0.0408,-0.0408,0,0.0282,0.031,0.0347,0.0367,0.0419,0.0406,0.0437,0.0419,0.0403,0.0448,0.031,0.0344,0.0099,0.002,-0.0137,-0.0249,-0.0257,-0.036,-0.0382,-0.0387,-0.0385,-0.0387,-0.0385,-0.0407,-0.0407,-0.0408,-0.0408,0,0.0297,0.0315,0.0371,0.0417,0.0436,0.0466,0.0514,0.0557,0.0521,0.0583,0.0569,0.049,0.0393,0.0186,-0.0019,-0.0154,-0.0302,-0.0328,-0.0294,-0.0314,-0.0363,-0.0362,-0.0369,-0.0369,-0.0369,-0.0368,-0.0368,0,0.0297,0.0332,0.0415,0.0473,0.0491,0.0544,0.0608,0.0605,0.0672,0.0722,0.0786,0.0704,0.0664,0.0375,0.009,-0.0168,-0.0204,-0.031,-0.0375,-0.034,-0.0362,-0.0361,-0.0361,-0.0378,-0.0378,-0.0378,-0.0378,0,0.0317,0.0348,0.0407,0.0528,0.0614,0.0704,0.0797,0.0866,0.091,0.0977,0.1064,0.1019,0.0775,0.0474,0.0112,-0.0055,-0.0295,-0.0312,-0.0299,-0.0386,-0.0349,-0.037,-0.0369,-0.0377,-0.0377,-0.0377,-0.0377,-0.0377,0.0342,0.0394,0.0492,0.0613,0.0715,0.0853,0.0959,0.1067,0.1175,0.1267,0.1223,0.1151,0.0839,0.0344,0.0069,-0.0221,-0.0216,-0.0358,-0.0359,-0.036,-0.0362,-0.0327,-0.0348,-0.0348,-0.0348,-0.0348,-0.0348,0,0.042,0.0487,0.0588,0.0738,0.0882,0.0923,0.1103,0.1226,0.1393,0.1375,0.1371,0.1023,0.0694,0.0387,-0.005,-0.032,-0.0362,-0.0388,-0.0405,-0.0404,-0.0404,-0.041,-0.0408,-0.0409,-0.0409,-0.041,0,0,0.0468,0.059,0.0654,0.0875,0.0995,0.1211,0.1339,0.1489,0.1522,0.1454,0.1341,0.1147,0.077,0.0436,0.0075,-0.0156,-0.021,-0.0197,-0.0126,-0.0104,-0.01,-0.0372,-0.0378,0,0,0,0,0]}],[{"header":{"parameterUnit":"m.s-1","parameterCategory":2,"la1":30.2991,"la2":30.254,"lo1":-89.0895,"lo2":-89.0444,"dy":0.0017,"dx":0.0017,"nx":28,"ny":28,"refTime":"2025-01-23T09:00:00:Z","depth":"4","parameterNumber":2,"parameterNumberName":"U-component_of_CURRENTS"},"data":[0,0,0,0,0,0,0,0,0,0,0,0,0,0,0,0,0,0,0,0,0,0,0,0,0,0,0,0,0,0,0,0,0,0,0,0,0,0,0,0,0,0,0,0,0,0,0,0,0,0,0,0,0,0,0,0,0,0,0.1048,0.1048,0,0.1084,0.1085,0.1085,0.1115,0.1116,0.1116,0.1117,0.1181,0.1182,0.1183,0,0,0,0,0,0,0,0,0,0,0,0,0,0.0985,0.0986,0.1048,0.1048,0.1049,0.1084,0.1085,0.1085,0.1115,0.1116,0.1117,0.1117,0.1181,0.1182,0.1183,0,0,0,0,0,0,0,0,0,0,0,0,0,0.1014,0.0986,0.1048,0.107,0.1072,0.1084,0.1085,0.1085,0.1115,0.1116,0.1117,0.1117,0.118,0.1182,0.1184,0.118,0,0,0.1189,0.119,0,0,0,0,0,0,0,0,0.1013,0.1016,0.1066,0.1068,0.1071,0.1098,0.1086,0.1119,0.1115,0.1097,0.1117,0.1118,0.1156,0.116,0.1162,0.1183,0.1186,0.119,0.1191,0.1191,0.1192,0,0,0,0,0,0,0,0.1011,0.1015,0.106,0.1067,0.107,0.1072,0.1077,0.1092,0.1121,0.1099,0.1101,0.1108,0.1158,0.116,0.1164,0.1187,0.1189,0.1191,0.1192,0.1193,0.1276,0.1278,0,0,0,0,0,0,0.101,0.1013,0.1059,0.1062,0.1045,0.1072,0.1078,0.1087,0.112,0.1126,0.1108,0.111,0.1157,0.1162,0.1167,0.1221,0.1191,0.1193,0.1194,0.1275,0.1277,0.1278,0,0,0,0,0,0,0.1009,0.1014,0.1058,0.1039,0.1045,0.1073,0.1083,0.1087,0.1116,0.1127,0.1134,0.1135,0.1158,0.1164,0.1197,0.1222,0.1194,0.1196,0.1274,0.1276,0.1277,0.1295,0,0,0,0,0,0,0.1007,0.1013,0.103,0.104,0.1047,0.1079,0.1082,0.1088,0.1119,0.1122,0.1153,0.1158,0.1159,0.1194,0.1199,0.1224,0.1197,0.1273,0.1275,0.1277,0.1293,0.1297,0.13,0,0,0,0,0,0.1004,0.1018,0.1031,0.1037,0.1065,0.1079,0.1083,0.1103,0.112,0.1133,0.1153,0.1158,0.1211,0.1196,0.1202,0.1228,0.1272,0.1274,0.1277,0.1291,0.1296,0.13,0,0,0,0,0,0,0.0999,0.1023,0.1037,0.1058,0.1076,0.1086,0.1104,0.1118,0.1144,0.1155,0.1167,0.1173,0.1214,0.1219,0.1203,0.1259,0.1245,0.1248,0.1254,0.1259,0.1262,0.1241,0.1199,0,0,0,0,0,0.1006,0.1026,0.1044,0.1065,0.1076,0.1096,0.111,0.1123,0.1142,0.1156,0.1182,0.1206,0.1223,0.124,0.1257,0.1286,0.1308,0.1309,0.1313,0.1316,0.1303,0.1387,0.1398,0.1286,0.1286,0.1286,0,0,0.1009,0.1027,0.1038,0.1066,0.1083,0.1096,0.1107,0.1132,0.1155,0.1158,0.1209,0.1223,0.1234,0.1265,0.1284,0.1276,0.1356,0.1319,0.1321,0.1306,0.1391,0.1402,0.1412,0.1288,0.1287,0.1287,0,0,0.1015,0.1043,0.1058,0.1074,0.1104,0.1114,0.1128,0.1157,0.1186,0.1224,0.1233,0.1257,0.13,0.1302,0.1308,0.1344,0.1375,0.1365,0.1366,0.1449,0.1459,0.1468,0.1496,0.1508,0.1366,0.1366,0.1366,0,0.1018,0.104,0.1065,0.1081,0.1099,0.1125,0.1143,0.1168,0.1209,0.1241,0.1248,0.1312,0.1312,0.1342,0.1337,0.1352,0.1394,0.1346,0.1454,0.1464,0.1473,0.15,0.1512,0.1367,0.1367,0.1367,0.1367,0,0.1029,0.1051,0.1062,0.1092,0.1116,0.1134,0.117,0.1211,0.1252,0.1278,0.1343,0.1347,0.1386,0.1388,0.1361,0.1421,0.1428,0.1452,0.1441,0.1485,0.151,0.1523,0.1369,0.1369,0.1368,0.1368,0,0,0.1012,0.106,0.1065,0.1084,0.1125,0.1143,0.1194,0.1245,0.1287,0.1339,0.1406,0.1405,0.1426,0.1431,0.1427,0.1463,0.1532,0.1474,0.1478,0.1497,0.1695,0.1561,0.1562,0.1598,0.1601,0.1603,0.1683,0,0.1011,0.104,0.1072,0.1104,0.1119,0.1169,0.1215,0.127,0.1321,0.1394,0.1429,0.1485,0.1442,0.1469,0.15,0.1521,0.157,0.1506,0.1653,0.1655,0.1529,0.1574,0.1611,0.1692,0.1695,0.1697,0.1698,0,0.1001,0.1025,0.1061,0.1117,0.1133,0.1165,0.125,0.1299,0.1394,0.144,0.1504,0.1548,0.1583,0.1571,0.164,0.1611,0.1651,0.167,0.1675,0.1549,0.1545,0.1644,0.1721,0.1719,0.1718,0.1716,0.1715,0,0.0961,0.1013,0.1048,0.1064,0.1133,0.1181,0.1234,0.132,0.1384,0.149,0.1547,0.1611,0.1664,0.1723,0.1739,0.1717,0.1834,0.1824,0.1747,0.1737,0.1826,0.1816,0.1921,0.1921,0.1921,0.1921,0.1921,0,0.093,0.0947,0.1038,0.1049,0.1091,0.1176,0.1256,0.1297,0.1426,0.1494,0.1578,0.1629,0.1715,0.1789,0.1795,0.1787,0.1897,0.1739,0.1756,0.1828,0.1818,0.1834,0.1823,0.1924,0.1923,0.1923,0.1922,0,0.0841,0.0916,0.0952,0.1046,0.1065,0.1112,0.1248,0.131,0.1431,0.153,0.158,0.1683,0.1734,0.1808,0.1895,0.1845,0.1868,0.1865,0.1916,0.1937,0.1694,0.1683,0.175,0.1746,0.1743,0.174,0.1737,0,0.0774,0.0783,0.0902,0.0951,0.0992,0.1085,0.1135,0.1274,0.1356,0.1531,0.1568,0.1683,0.173,0.1734,0.1805,0.1837,0.1831,0.1841,0.1752,0.167,0.1681,0.1675,0.1669,0.1732,0.1731,0.173,0.173,0,0.0618,0.0698,0.0748,0.0838,0.0914,0.099,0.1094,0.1144,0.1324,0.1453,0.1516,0.156,0.1617,0.1641,0.1704,0.1722,0.1814,0.1805,0.1811,0.1728,0.165,0.1663,0.166,0.1718,0.172,0.1721,0.1721,0,0.0507,0.0521,0.0629,0.0708,0.0805,0.0872,0.0945,0.1055,0.1149,0.1364,0.1375,0.1479,0.1591,0.1585,0.1633,0.164,0.1596,0.1549,0.1567,0.158,0.1486,0.136,0.1352,0,0,0,0,0,0.0403,0.0431,0.048,0.0599,0.0706,0.0758,0.0901,0.1007,0.1184,0.1187,0.1292,0.1338,0.1381,0.1435,0.1404,0.1536,0.1594,0.1493,0.1546,0.1654,0.1668,0.1571,0,0,0,0,0,0,0.0349,0.0396,0.0434,0.0489,0.0551,0.0639,0.0727,0.0847,0.0889,0.107,0.1097,0.1242,0.1297,0.1366,0.1365,0.1387,0.1391,0.1579,0.1576,0.1647,0.1659,0.167,0.1575,0,0,0,0,0]},{"header":{"parameterUnit":"m.s-1","parameterCategory":2,"la1":30.2991,"la2":30.254,"lo1":-89.0895,"lo2":-89.0444,"dy":0.0017,"dx":0.0017,"nx":28,"ny":28,"refTime":"2025-01-23T09:00:00:Z","depth":"4","parameterNumber":3,"parameterNumberName":"V-component_of_CURRENTS"},"data":[0,0,0,0,0,0,0,0,0,0,0,0,0,0,0,0,0,0,0,0,0,0,0,0,0,0,0,0,0,0,0,0,0,0,0,0,0,0,0,0,0,0,0,0,0,0,0,0,0,0,0,0,0,0,0,0,0,0,0.0252,0.0252,0,0.0231,0.0231,0.0231,0.0225,0.0225,0.0225,0.0225,0.0165,0.0164,0.0162,0,0,0,0,0,0,0,0,0,0,0,0,0,0.0259,0.026,0.0252,0.0252,0.0252,0.0231,0.0231,0.0231,0.0225,0.0225,0.0225,0.0225,0.0166,0.0164,0.0162,0,0,0,0,0,0,0,0,0,0,0,0,0,0.025,0.026,0.0252,0.0246,0.0245,0.0232,0.0231,0.0231,0.0225,0.0225,0.0225,0.0225,0.0166,0.0164,0.0162,0.0144,0,0,0.0154,0.0153,0,0,0,0,0,0,0,0,0.025,0.025,0.0247,0.0246,0.0245,0.023,0.0212,0.02,0.0225,0.0233,0.0225,0.0225,0.0183,0.0179,0.0176,0.0142,0.0139,0.0154,0.0152,0.0151,0.015,0,0,0,0,0,0,0,0.0251,0.025,0.0245,0.0247,0.0246,0.0234,0.0233,0.0209,0.0208,0.0233,0.0232,0.0229,0.0182,0.0179,0.0175,0.0138,0.0154,0.0152,0.015,0.0149,0.0109,0.0109,0,0,0,0,0,0,0.0254,0.0251,0.0245,0.0244,0.0247,0.0234,0.0233,0.0236,0.0209,0.0205,0.0229,0.0228,0.0183,0.0178,0.0173,0.0202,0.0151,0.0149,0.0147,0.0108,0.0109,0.0109,0,0,0,0,0,0,0.0254,0.0254,0.0246,0.0246,0.0244,0.0234,0.0237,0.0235,0.0234,0.0206,0.0202,0.023,0.0183,0.0176,0.0169,0.0197,0.0148,0.0145,0.0108,0.0109,0.0109,0.0226,0,0,0,0,0,0,0.0255,0.0254,0.0258,0.0247,0.0244,0.0247,0.0237,0.0235,0.0231,0.0231,0.0205,0.02,0.0182,0.0173,0.0167,0.0193,0.0144,0.0107,0.0108,0.0109,0.0222,0.0231,0.0239,0,0,0,0,0,0.0255,0.0262,0.0258,0.0257,0.025,0.0248,0.0246,0.0239,0.0232,0.0237,0.0226,0.0201,0.0173,0.0172,0.0164,0.019,0.0107,0.0108,0.0109,0.0218,0.0229,0.0238,0,0,0,0,0,0,0.0263,0.0261,0.0257,0.0262,0.0259,0.0247,0.025,0.0241,0.0236,0.0235,0.0208,0.0203,0.0209,0.0174,0.0173,0.0177,0.0134,0.0133,0.022,0.0229,0.0238,0.0246,0.0141,0,0,0,0,0,0.0266,0.0275,0.0267,0.0271,0.0272,0.026,0.0257,0.0253,0.0245,0.0243,0.0228,0.0209,0.0205,0.0198,0.0182,0.0181,0.0133,0.0188,0.0197,0.0204,0.0204,0.018,0.0187,0.0112,0.0112,0.0112,0,0,0.027,0.027,0.0274,0.0274,0.027,0.0286,0.026,0.026,0.0278,0.0235,0.0254,0.0238,0.021,0.0223,0.0221,0.0199,0.0194,0.0206,0.0213,0.0208,0.0182,0.0189,0.0196,0.0113,0.0113,0.0113,0,0,0.0287,0.0283,0.0299,0.0304,0.0303,0.03,0.0302,0.0296,0.03,0.0308,0.0293,0.0298,0.0272,0.0278,0.0273,0.0309,0.0241,0.0293,0.0344,0.0323,0.0329,0.0334,0.0261,0.0259,0.0296,0.0297,0.0297,0,0.0292,0.0314,0.0302,0.0323,0.0335,0.0312,0.0338,0.0339,0.0334,0.034,0.0326,0.0319,0.0306,0.0331,0.0354,0.0333,0.0282,0.0318,0.0336,0.034,0.0343,0.0268,0.0264,0.0302,0.0302,0.0301,0.03,0,0.0325,0.0347,0.0358,0.0383,0.0392,0.0409,0.0412,0.0423,0.0418,0.0413,0.0429,0.0415,0.0407,0.0413,0.04,0.0421,0.0363,0.0355,0.0319,0.0359,0.0275,0.0269,0.0311,0.0308,0.0307,0.0305,0,0,0.033,0.0375,0.038,0.0407,0.0429,0.0438,0.0475,0.0496,0.0514,0.0508,0.0528,0.0542,0.0515,0.0506,0.049,0.0483,0.0472,0.0433,0.0429,0.0373,0.0377,0.0324,0.031,0.0466,0.0467,0.0467,0.0302,0,0.0364,0.0419,0.0434,0.049,0.052,0.0528,0.0568,0.058,0.0575,0.0585,0.0573,0.0578,0.0554,0.0554,0.0547,0.049,0.0463,0.0514,0.0334,0.0328,0.0288,0.0306,0.0467,0.0297,0.0295,0.0294,0.0293,0,0.0394,0.0431,0.0495,0.0556,0.057,0.0604,0.0649,0.0675,0.0683,0.0678,0.0669,0.0636,0.0628,0.0604,0.0515,0.0542,0.0467,0.0419,0.0411,0.0317,0.0265,0.025,0.0281,0.0282,0.0283,0.0284,0.0284,0,0.04,0.0471,0.0526,0.0547,0.0612,0.065,0.0681,0.0704,0.0718,0.0724,0.0712,0.0688,0.0654,0.0588,0.0477,0.0491,0.0356,0.0359,0.0231,0.0223,0.0269,0.0265,0.0294,0.0294,0.0295,0.0295,0.0296,0,0.0426,0.0465,0.0538,0.0566,0.0631,0.0673,0.0722,0.0746,0.0768,0.0764,0.0749,0.0716,0.065,0.0557,0.0473,0.0314,0.0338,0.0231,0.0189,0.0316,0.032,0.0262,0.026,0.0289,0.029,0.0292,0.0293,0,0.041,0.0462,0.0518,0.0603,0.0632,0.0671,0.0735,0.076,0.0785,0.0774,0.0773,0.0716,0.0592,0.0496,0.0362,0.0285,0.0166,0.0103,0.0205,0.0172,0.0041,0.0047,-0.0058,-0.0061,-0.0064,-0.0066,-0.0067,0,0.0405,0.0439,0.0525,0.0554,0.0593,0.0658,0.0701,0.0758,0.0767,0.0752,0.0734,0.0633,0.0573,0.0334,0.0246,0.0065,0.0051,-0.0024,0.0057,0.0041,0.001,0.002,0.003,-0.0071,-0.0072,-0.0073,-0.0073,0,0.039,0.042,0.0466,0.0536,0.0587,0.0634,0.0692,0.0705,0.0747,0.0754,0.068,0.0578,0.0425,0.0289,0.0145,0.0026,0.0032,-0.0051,-0.0045,0.003,0.0024,-0.0003,0.001,-0.0082,-0.0081,-0.008,-0.008,0,0.0376,0.0392,0.0462,0.0516,0.0574,0.0616,0.0645,0.0665,0.0689,0.0684,0.0637,0.0519,0.0452,0.0261,0.0129,0.001,-0.001,-0.0029,-0.0025,-0.0016,0.0066,0.0068,-0.0066,0,0,0,0,0,0.0372,0.0399,0.044,0.0511,0.0561,0.0594,0.0649,0.0674,0.0704,0.0646,0.0654,0.0517,0.0322,0.0242,0.011,0.008,-0.0031,-0.0079,-0.0049,-0.0131,-0.0121,-0.0033,0,0,0,0,0,0,0.0377,0.042,0.0438,0.0502,0.0535,0.0596,0.0626,0.0637,0.0616,0.0618,0.0518,0.0472,0.0287,0.0391,0.0101,0.0064,0.0063,-0.0165,-0.0168,-0.0137,-0.0127,-0.0119,-0.0026,0,0,0,0,0]}]]